[[{"header":{"parameterUnit":"m.s-1","parameterCategory":1,"la1":30.2991,"la2":30.254,"lo1":-89.0895,"lo2":-89.0444,"dy":0.0017,"dx":0.0017,"nx":28,"ny":28,"refTime":"2024-05-07T21:00:00:Z","depth":0,"parameterNumber":2,"parameterNumberName":"U-component_of_WINDS"},"data":[0,0,0,0,0,0,0,0,0,0,0,0,0,0,0,0,0,0,0,0,0,0,0,0,0,0,0,0,0,0,0,0,0,0,0,0,0,0,0,0,0,0,0,0,0,0,0,0,0,0,0,0,0,0,0,0,0,0,-0.5109,-0.5108,0,-0.5078,-0.5077,-0.5077,-0.5062,-0.5062,-0.5062,-0.5062,-0.503,-0.5029,-0.5028,0,0,0,0,0,0,0,0,0,0,0,0,0,-0.5154,-0.5153,-0.5109,-0.5108,-0.5108,-0.5078,-0.5077,-0.5077,-0.5062,-0.5062,-0.5062,-0.5062,-0.503,-0.5029,-0.5028,0,0,0,0,0,0,0,0,0,0,0,0,0,-0.513,-0.5153,-0.5109,-0.5097,-0.5095,-0.5078,-0.5077,-0.5077,-0.5062,-0.5062,-0.5062,-0.5062,-0.5031,-0.5029,-0.5028,-0.502,0,0,-0.5024,-0.5024,0,0,0,0,0,0,0,0,-0.5131,-0.5128,-0.5099,-0.5098,-0.5096,-0.5074,-0.5082,-0.5058,-0.5062,-0.5075,-0.5062,-0.5062,-0.5045,-0.5042,-0.5036,-0.5018,-0.5017,-0.5024,-0.5023,-0.5023,-0.5022,0,0,0,0,0,0,0,-0.5133,-0.5129,-0.5096,-0.5099,-0.5097,-0.5093,-0.5089,-0.5077,-0.506,-0.5074,-0.5073,-0.5069,-0.5044,-0.5038,-0.5035,-0.5016,-0.5024,-0.5023,-0.5022,-0.5022,-0.499,-0.499,0,0,0,0,0,0,-0.5137,-0.5131,-0.5097,-0.5096,-0.5114,-0.5092,-0.5088,-0.5081,-0.506,-0.5057,-0.5069,-0.5069,-0.504,-0.5037,-0.5034,-0.5023,-0.5023,-0.5021,-0.5021,-0.499,-0.499,-0.499,0,0,0,0,0,0,-0.5138,-0.5134,-0.5099,-0.5113,-0.5108,-0.5091,-0.5083,-0.508,-0.5074,-0.5057,-0.5053,-0.5066,-0.504,-0.5036,-0.5024,-0.5022,-0.5021,-0.502,-0.499,-0.499,-0.499,-0.5001,0,0,0,0,0,0,-0.5139,-0.5134,-0.5131,-0.5113,-0.5107,-0.5089,-0.5083,-0.508,-0.5072,-0.5071,-0.5053,-0.505,-0.5039,-0.5026,-0.5022,-0.502,-0.5019,-0.499,-0.499,-0.499,-0.5,-0.5001,-0.5001,0,0,0,0,0,-0.5141,-0.5135,-0.5131,-0.5127,-0.5103,-0.5089,-0.5085,-0.5074,-0.5072,-0.5069,-0.5057,-0.505,-0.5022,-0.5024,-0.5021,-0.5018,-0.499,-0.499,-0.499,-0.5,-0.5001,-0.5001,0,0,0,0,0,0,-0.5154,-0.5133,-0.5128,-0.5116,-0.5104,-0.5086,-0.5082,-0.5075,-0.5063,-0.5063,-0.5048,-0.5044,-0.5033,-0.5024,-0.5027,-0.5008,-0.5006,-0.5005,-0.5015,-0.5015,-0.5016,-0.5018,-0.5018,0,0,0,0,0,-0.5155,-0.5145,-0.5127,-0.5119,-0.5113,-0.5099,-0.5092,-0.5084,-0.5071,-0.5066,-0.5053,-0.5041,-0.5029,-0.5022,-0.501,-0.4999,-0.4995,-0.4995,-0.4996,-0.4996,-0.4996,-0.4989,-0.4989,-0.4989,-0.4989,-0.4989,0,0,-0.5158,-0.5146,-0.514,-0.5121,-0.5111,-0.5101,-0.5094,-0.5084,-0.5076,-0.5064,-0.5051,-0.5042,-0.5027,-0.5015,-0.5009,-0.5007,-0.4994,-0.4996,-0.4997,-0.4996,-0.4989,-0.4989,-0.4989,-0.4989,-0.4989,-0.4989,0,0,-0.5159,-0.5148,-0.514,-0.513,-0.5115,-0.5105,-0.5103,-0.5085,-0.5079,-0.5066,-0.5056,-0.5047,-0.5027,-0.5017,-0.5009,-0.5005,-0.4998,-0.5002,-0.5004,-0.4998,-0.4998,-0.4998,-0.4996,-0.4996,-0.5001,-0.5001,-0.5001,0,-0.5164,-0.5149,-0.5137,-0.5127,-0.5119,-0.5107,-0.5098,-0.5089,-0.5071,-0.5065,-0.5064,-0.5038,-0.5027,-0.5013,-0.5012,-0.5006,-0.5003,-0.5004,-0.4999,-0.4999,-0.4998,-0.4997,-0.4996,-0.5001,-0.5001,-0.5001,-0.5001,0,-0.5157,-0.5146,-0.5141,-0.5124,-0.5115,-0.5106,-0.5092,-0.5085,-0.5077,-0.5068,-0.5054,-0.5041,-0.5026,-0.5022,-0.5015,-0.5007,-0.5006,-0.5002,-0.4998,-0.4999,-0.4997,-0.4996,-0.5002,-0.5002,-0.5002,-0.5002,0,0,-0.5164,-0.514,-0.5139,-0.513,-0.5112,-0.5104,-0.5094,-0.508,-0.5074,-0.5061,-0.5052,-0.5036,-0.5032,-0.5023,-0.5014,-0.5009,-0.5006,-0.5005,-0.5005,-0.5006,-0.4996,-0.4999,-0.4999,-0.5002,-0.5002,-0.5002,-0.4997,0,-0.5162,-0.5144,-0.5133,-0.5119,-0.5109,-0.5098,-0.5089,-0.5077,-0.5068,-0.5057,-0.5047,-0.5035,-0.5031,-0.5025,-0.5019,-0.5008,-0.5004,-0.5008,-0.4993,-0.4993,-0.4997,-0.4998,-0.5001,-0.4998,-0.4996,-0.4996,-0.4996,0,-0.5157,-0.5145,-0.5131,-0.5114,-0.5109,-0.5101,-0.5087,-0.5078,-0.5064,-0.5057,-0.5047,-0.5038,-0.5027,-0.5025,-0.5009,-0.5012,-0.5006,-0.4999,-0.4999,-0.4997,-0.4995,-0.4996,-0.4996,-0.4996,-0.4995,-0.4995,-0.4995,0,-0.5164,-0.5144,-0.5133,-0.5126,-0.5106,-0.5101,-0.5092,-0.5078,-0.507,-0.5058,-0.5053,-0.5039,-0.5032,-0.5021,-0.5009,-0.5009,-0.4994,-0.4991,-0.4988,-0.4989,-0.4986,-0.4986,-0.4985,-0.4982,-0.4982,-0.4982,-0.4982,0,-0.5163,-0.5154,-0.5136,-0.5129,-0.5119,-0.5106,-0.5096,-0.5086,-0.5074,-0.5065,-0.5054,-0.5046,-0.503,-0.502,-0.501,-0.4998,-0.4995,-0.4989,-0.4987,-0.499,-0.4991,-0.4986,-0.4985,-0.4982,-0.4982,-0.4982,-0.4982,0,-0.5169,-0.5156,-0.5143,-0.5125,-0.512,-0.5114,-0.5098,-0.5091,-0.5081,-0.5069,-0.5066,-0.505,-0.5037,-0.5024,-0.5006,-0.5,-0.4988,-0.4985,-0.4993,-0.4992,-0.499,-0.499,-0.4985,-0.4984,-0.4981,-0.4981,-0.4981,0,-0.5169,-0.5162,-0.5143,-0.5136,-0.5128,-0.5117,-0.5109,-0.5095,-0.5087,-0.5071,-0.5065,-0.5052,-0.504,-0.502,-0.5007,-0.4993,-0.4989,-0.4989,-0.4987,-0.4991,-0.4989,-0.499,-0.4989,-0.4989,-0.4989,-0.4989,-0.4989,0,-0.517,-0.5164,-0.5153,-0.5139,-0.513,-0.5118,-0.5106,-0.5101,-0.5085,-0.5077,-0.5064,-0.5055,-0.5037,-0.5023,-0.5008,-0.4999,-0.4992,-0.499,-0.4989,-0.4992,-0.4997,-0.4994,-0.4994,-0.499,-0.499,-0.499,-0.499,-0.499,-0.5173,-0.5167,-0.5152,-0.514,-0.5129,-0.5118,-0.5111,-0.5099,-0.5088,-0.5073,-0.5065,-0.5052,-0.5038,-0.5017,-0.5008,-0.4997,-0.4995,-0.4993,-0.4993,-0.4992,-0.4993,-0.4999,-0.4994,-0.4994,-0.4994,-0.4994,-0.4994,0,-0.5174,-0.5164,-0.5153,-0.5136,-0.5126,-0.512,-0.5107,-0.5099,-0.5087,-0.5075,-0.5063,-0.5048,-0.5035,-0.5021,-0.5007,-0.5001,-0.4997,-0.4997,-0.4998,-0.4996,-0.4996,-0.4998,-0.5001,-0.5001,-0.5001,-0.5001,-0.5001,-0.5001,-0.5173,-0.5161,-0.5153,-0.5136,-0.5126,-0.5113,-0.5106,-0.5096,-0.5086,-0.5069,-0.5058,-0.5049,-0.5035,-0.502,-0.5008,-0.5004,-0.4999,-0.5001,-0.4996,-0.4996,-0.4996,-0.4995,-0.4998,-0.5,-0.5,-0.4997,-0.4997,-0.4997]},{"header":{"parameterUnit":"m.s-1","parameterCategory":1,"la1":30.2991,"la2":30.254,"lo1":-89.0895,"lo2":-89.0444,"dy":0.0017,"dx":0.0017,"nx":28,"ny":28,"refTime":"2024-05-07T21:00:00:Z","depth":0,"parameterNumber":3,"parameterNumberName":"V-component_of_WINDS"},"data":[0,0,0,0,0,0,0,0,0,0,0,0,0,0,0,0,0,0,0,0,0,0,0,0,0,0,0,0,0,0,0,0,0,0,0,0,0,0,0,0,0,0,0,0,0,0,0,0,0,0,0,0,0,0,0,0,0,0,5.2181,5.2183,0,5.2363,5.2365,5.2367,5.2378,5.2376,5.2374,5.2372,5.2555,5.2562,5.2568,0,0,0,0,0,0,0,0,0,0,0,0,0,5.1841,5.1847,5.2181,5.2183,5.2185,5.2362,5.2365,5.2367,5.2378,5.2376,5.2373,5.2371,5.2553,5.2561,5.2569,0,0,0,0,0,0,0,0,0,0,0,0,0,5.2002,5.1849,5.218,5.2212,5.2217,5.2362,5.2365,5.2368,5.2379,5.2376,5.2373,5.237,5.255,5.256,5.257,5.2695,0,0,5.2601,5.2606,0,0,0,0,0,0,0,0,5.1993,5.2015,5.2205,5.221,5.2216,5.2345,5.2312,5.2477,5.238,5.2317,5.2372,5.2368,5.2487,5.2502,5.2543,5.2703,5.2711,5.2602,5.2608,5.2613,5.2616,0,0,0,0,0,0,0,5.1982,5.2007,5.2252,5.2208,5.2214,5.2217,5.2236,5.2344,5.2417,5.2322,5.2324,5.2345,5.249,5.2533,5.2548,5.2714,5.2602,5.2611,5.2617,5.2621,5.2986,5.299,0,0,0,0,0,0,5.1965,5.1998,5.2247,5.2258,5.2095,5.2225,5.2247,5.2306,5.2416,5.243,5.2348,5.2345,5.2517,5.2536,5.2554,5.2709,5.2613,5.2622,5.2628,5.2983,5.2987,5.2991,0,0,0,0,0,0,5.1958,5.1987,5.2239,5.2128,5.2161,5.2235,5.2301,5.2311,5.2355,5.2435,5.2448,5.2379,5.2516,5.254,5.266,5.2715,5.2627,5.2636,5.2979,5.2984,5.2989,5.3017,0,0,0,0,0,0,5.1948,5.1984,5.2033,5.2129,5.2166,5.2343,5.2304,5.2317,5.2373,5.2372,5.2468,5.2481,5.2515,5.2645,5.267,5.2727,5.2644,5.2974,5.2981,5.2987,5.3012,5.3023,5.3032,0,0,0,0,0,5.1936,5.2032,5.2035,5.2065,5.2229,5.2346,5.2367,5.2406,5.2377,5.2427,5.2478,5.2478,5.2705,5.2657,5.2686,5.2747,5.2971,5.2979,5.2987,5.3007,5.3021,5.3032,0,0,0,0,0,0,5.1939,5.2046,5.205,5.2181,5.2255,5.2348,5.2411,5.2418,5.2501,5.2496,5.2538,5.256,5.268,5.2725,5.267,5.2874,5.2835,5.2849,5.284,5.2854,5.2864,5.2851,5.2652,0,0,0,0,0,5.1955,5.2042,5.213,5.2237,5.2274,5.2336,5.2389,5.2412,5.249,5.2521,5.2581,5.2656,5.2744,5.2801,5.2886,5.3018,5.304,5.3074,5.3084,5.3092,5.3104,5.3179,5.3196,5.3018,5.3018,5.3018,0,0,5.1989,5.2058,5.211,5.224,5.23,5.2389,5.2362,5.2457,5.2524,5.2535,5.2653,5.27,5.2786,5.2913,5.2972,5.2954,5.3158,5.3103,5.3109,5.3116,5.3189,5.3206,5.3221,5.3023,5.3022,5.3021,0,0,5.2096,5.2157,5.2254,5.2315,5.2407,5.2447,5.247,5.2564,5.2596,5.2715,5.2725,5.2805,5.2955,5.3017,5.3068,5.3201,5.3204,5.3227,5.3281,5.3353,5.3367,5.338,5.3428,5.3445,5.3238,5.3239,5.3239,0,5.2127,5.2263,5.2302,5.2398,5.2455,5.2471,5.2569,5.2626,5.274,5.2779,5.2758,5.2949,5.3007,5.315,5.3182,5.3223,5.3251,5.3216,5.3362,5.3375,5.3388,5.3434,5.3452,5.3241,5.3241,5.324,5.324,0,5.2296,5.239,5.2457,5.2569,5.2633,5.2729,5.2784,5.2844,5.2862,5.2905,5.3027,5.3098,5.3199,5.3234,5.3252,5.338,5.3366,5.3353,5.3315,5.3406,5.3451,5.3469,5.3244,5.3243,5.3243,5.3242,0,0,5.241,5.2544,5.2568,5.262,5.2723,5.2796,5.2893,5.2993,5.3045,5.3123,5.3206,5.3334,5.3323,5.3381,5.3405,5.3469,5.3571,5.3448,5.3451,5.3469,5.3718,5.3728,5.3748,5.3573,5.3577,5.358,5.3711,0,5.253,5.2705,5.2745,5.2895,5.2983,5.2999,5.3084,5.3156,5.3199,5.3279,5.3326,5.3416,5.3394,5.343,5.3493,5.3545,5.3621,5.3536,5.3651,5.3655,5.363,5.3771,5.3782,5.3902,5.3728,5.3731,5.3734,0,5.2694,5.2778,5.2938,5.3031,5.3069,5.3144,5.324,5.3317,5.3399,5.3426,5.3491,5.351,5.3611,5.3568,5.3709,5.365,5.3699,5.3732,5.3738,5.375,5.37,5.3789,5.3941,5.396,5.3761,5.3759,5.3757,0,5.2763,5.2916,5.3032,5.3075,5.3186,5.3239,5.3287,5.3367,5.3425,5.3508,5.3546,5.364,5.3691,5.3763,5.3806,5.377,5.3944,5.3904,5.397,5.3969,5.4006,5.4003,5.417,5.4036,5.4036,5.4036,5.4035,0,5.2894,5.2991,5.3065,5.3136,5.3246,5.329,5.3397,5.3445,5.3515,5.3596,5.3615,5.369,5.3742,5.3825,5.3859,5.3971,5.3994,5.4019,5.4027,5.4018,5.4015,5.4051,5.4044,5.404,5.4039,5.4038,5.4038,0,5.299,5.3043,5.3171,5.3266,5.3292,5.3369,5.345,5.3519,5.3563,5.3665,5.3691,5.3759,5.3858,5.3908,5.403,5.4053,5.418,5.4182,5.4153,5.4156,5.422,5.4214,5.4417,5.4446,5.4291,5.4293,5.4294,0,5.307,5.3146,5.325,5.3306,5.3356,5.3446,5.3506,5.3552,5.3613,5.3714,5.3771,5.3871,5.3953,5.4109,5.4169,5.4263,5.4268,5.4333,5.4282,5.4272,5.4271,5.4267,5.4275,5.4342,5.4344,5.4345,5.4346,0,5.3208,5.3231,5.3317,5.3414,5.3486,5.3563,5.3639,5.3684,5.3742,5.3811,5.3912,5.3976,5.4102,5.42,5.4299,5.4348,5.4357,5.4361,5.4382,5.4374,5.4354,5.4367,5.4179,5.4356,5.4355,5.4355,5.4354,5.4354,5.33,5.3369,5.3453,5.3549,5.3612,5.3683,5.3754,5.3807,5.3893,5.4,5.4021,5.4129,5.421,5.4343,5.4396,5.448,5.4467,5.4496,5.4503,5.451,5.4514,5.434,5.4498,5.4498,5.4498,5.4497,5.4497,0,5.344,5.3495,5.3583,5.3691,5.3766,5.3769,5.3854,5.3917,5.4012,5.4088,5.4169,5.4286,5.4382,5.445,5.4548,5.4603,5.4609,5.4627,5.4624,5.4635,5.452,5.4493,5.462,5.462,5.462,5.462,5.462,5.462,5.3522,5.3639,5.3672,5.382,5.3874,5.3981,5.403,5.4096,5.4156,5.4287,5.4368,5.4412,5.4484,5.4588,5.4676,5.4694,5.4729,5.4747,5.4765,5.4656,5.4643,5.4631,5.4606,5.4754,5.4754,5.4873,5.4874,5.4875]}]]